Theta_e
314 313 317 318 317 320 320 320 317 317 317 311 312 314 315 319 320 321 321 327 331 340 344 340 342 341 340 341 344 343 343 346 343 337 334 344 343 340 341 338 339 339 340 340 341 343 342 343 341 337 337 334 333 337 336 336 337 339 340 341 342 341 342 342 342 341 341 342 342 343 342 342 340 338 339 340 340 339 339 339 337 333 333 336 334 333 333 333 334 335 335 335 335 335 336 336 335
315 315 317 318 317 319 319 318 317 314 314 310 311 315 315 319 319 318 322 327 330 341 345 343 344 343 342 343 344 345 347 346 344 343 343 342 341 340 340 338 339 340 341 340 341 342 342 343 340 338 337 334 335 335 334 336 337 339 340 341 342 341 342 341 341 341 341 342 342 342 342 342 341 340 339 339 339 339 340 340 339 335 333 334 334 334 334 335 334 336 336 336 336 336 336 336 335
314 317 317 317 317 317 321 320 316 312 312 310 311 317 317 318 319 318 321 324 330 340 344 342 344 343 343 344 346 346 347 345 342 343 342 341 341 340 341 339 338 340 340 340 341 342 343 342 340 338 336 335 333 331 333 336 338 340 341 341 342 341 342 341 342 342 342 342 342 342 342 342 341 340 339 339 339 339 340 341 340 333 331 333 334 334 335 336 335 336 337 336 336 336 336 336 336
314 318 317 316 319 320 327 323 317 313 311 310 311 316 318 318 318 318 320 329 336 341 343 342 344 343 344 346 346 346 347 345 344 344 343 342 341 340 341 339 339 339 340 341 341 341 342 342 340 337 337 335 328 331 335 336 339 340 342 342 342 342 342 342 342 341 342 342 342 342 342 341 340 340 339 339 339 340 340 338 333 328 329 331 333 335 336 337 336 336 337 337 337 336 336 336 336
315 319 316 317 322 322 324 320 316 314 311 312 312 315 319 318 318 318 318 334 343 341 342 343 345 344 346 347 346 346 348 346 345 345 344 342 341 341 340 339 339 339 339 340 340 341 342 341 339 337 337 332 327 334 337 339 341 341 342 342 342 342 342 341 341 341 341 341 342 341 341 341 341 340 340 339 339 340 339 336 330 329 331 330 331 335 337 337 337 337 337 337 337 337 336 335 334
316 318 316 317 319 318 321 318 314 313 315 318 315 316 319 317 318 317 316 331 342 340 341 343 345 347 349 348 345 346 346 346 346 345 344 343 340 341 341 340 339 340 340 339 340 341 342 341 338 337 336 333 333 337 340 341 342 341 342 342 342 342 341 341 341 341 340 341 341 341 341 341 341 340 339 339 339 338 338 337 334 333 332 332 331 334 337 337 337 337 337 337 336 335 334 333 332
316 319 318 319 318 318 324 318 313 314 316 318 318 317 317 317 317 317 316 323 335 339 339 342 345 344 349 347 346 346 343 346 346 345 344 342 341 341 341 339 339 340 340 340 340 340 342 340 337 337 335 336 338 340 341 341 342 342 342 342 342 341 341 341 341 341 340 340 340 339 340 339 339 338 338 337 337 336 336 335 336 333 330 332 333 334 336 336 337 337 337 335 334 333 332 331 330
316 319 318 321 321 319 322 318 315 316 315 315 317 317 317 317 316 317 317 317 325 336 338 343 344 338 347 348 348 347 343 344 345 345 344 342 342 341 341 339 340 339 339 340 340 340 341 338 337 337 335 338 341 341 342 342 342 342 342 341 341 341 341 341 340 339 337 336 336 336 336 336 336 335 335 333 334 334 334 333 334 333 329 331 333 333 334 334 334 334 333 332 332 331 331 330 328
315 317 318 320 319 317 317 315 314 315 315 315 315 316 318 319 317 317 317 317 317 328 340 343 341 338 347 348 349 346 343 344 343 344 343 342 342 341 341 339 340 339 338 339 339 340 340 338 337 336 336 340 342 341 342 341 342 342 341 341 341 342 341 340 338 335 332 332 332 333 332 333 333 333 333 329 331 332 331 332 333 333 330 329 332 333 333 332 330 328 329 329 330 330 330 328 328
315 316 320 319 316 314 313 313 314 316 316 315 314 315 317 317 317 316 316 318 316 325 343 343 342 345 348 349 349 346 342 343 343 344 343 342 341 340 340 339 340 338 337 339 339 340 340 337 336 336 337 341 342 341 342 342 342 341 341 341 341 341 339 336 333 331 331 331 329 329 327 327 326 327 327 322 326 329 329 331 331 332 329 327 330 331 332 330 327 326 326 326 327 327 327 328 329
317 314 316 316 314 312 312 312 314 316 316 315 316 315 315 316 315 317 316 317 319 331 345 344 345 348 348 349 348 345 341 343 343 344 342 341 341 340 340 339 339 337 338 339 340 341 339 337 336 335 337 341 342 342 342 342 342 341 341 341 341 339 336 332 331 332 332 331 328 325 322 321 319 317 316 313 317 325 328 329 331 331 327 326 329 329 330 328 326 325 325 326 326 326 327 327 328
318 315 316 316 314 313 313 313 315 318 317 317 318 317 315 315 315 316 315 317 325 336 344 343 346 347 349 349 346 344 341 342 342 343 342 341 340 340 339 339 338 336 338 339 340 340 339 339 336 335 338 341 341 342 342 341 342 341 341 340 340 337 333 332 333 333 332 330 325 320 317 316 315 312 310 309 310 316 324 327 330 330 326 326 328 329 329 327 327 326 326 326 326 327 326 327 328
317 317 317 315 314 315 314 313 316 320 318 317 319 318 315 315 315 316 319 329 336 339 342 343 345 346 350 348 345 343 342 342 341 342 341 341 340 339 339 339 337 336 338 339 340 340 339 339 336 337 339 340 341 342 341 341 342 341 341 340 338 335 333 334 334 333 330 325 321 319 319 320 319 315 311 310 308 310 316 324 328 328 325 326 328 329 329 328 328 327 327 327 327 327 327 327 327
316 316 317 316 313 314 315 313 315 316 316 317 319 316 316 319 317 314 326 341 345 343 343 346 344 345 349 347 345 343 342 342 341 341 341 341 340 339 339 338 337 336 338 338 339 339 339 337 335 339 340 340 340 340 340 340 341 340 340 338 336 335 334 334 332 330 326 322 320 324 327 328 327 322 316 312 310 310 313 319 324 324 324 325 327 329 329 329 329 328 328 327 327 327 327 327 326
314 314 318 317 313 313 314 314 314 314 314 318 318 316 323 331 329 326 334 342 345 344 345 347 344 344 347 346 347 345 343 341 340 341 340 340 339 338 338 337 336 336 337 338 339 339 338 335 336 340 341 341 341 340 340 340 341 340 339 337 335 335 335 332 330 326 323 321 323 328 331 331 330 329 325 318 312 310 312 316 319 321 322 324 326 328 329 329 329 329 328 327 327 327 326 326 327
312 314 318 316 313 312 313 314 315 313 315 319 316 317 325 335 340 342 342 341 345 345 345 346 343 344 345 343 345 345 343 341 340 340 339 339 338 338 337 337 337 337 337 337 338 338 336 336 337 340 341 342 341 341 341 340 341 340 339 336 335 336 333 330 327 323 321 322 324 327 329 329 329 329 328 325 319 313 311 312 314 316 318 322 325 327 328 328 328 327 326 326 326 326 326 327 329
311 315 318 315 312 312 313 314 314 314 316 319 316 316 318 328 342 346 343 343 346 347 345 345 344 345 344 343 345 344 342 340 340 339 339 338 337 337 336 336 336 336 337 338 337 335 335 336 339 340 342 342 342 341 341 340 340 339 338 337 336 335 332 328 326 325 325 326 327 327 327 327 328 328 328 327 325 321 316 313 312 313 316 320 324 325 326 326 325 325 324 324 324 325 327 329 331
313 316 316 313 314 313 315 314 314 316 317 318 317 317 314 325 343 345 344 347 347 347 346 346 344 344 344 344 344 342 341 340 339 339 338 338 337 336 335 335 336 336 337 337 336 335 336 338 339 340 341 341 342 341 341 341 340 339 339 338 337 335 332 331 331 330 332 331 331 329 328 329 331 334 334 332 330 329 326 322 318 315 316 318 321 323 323 323 322 322 321 321 324 326 327 330 330
314 317 315 313 315 314 315 316 315 316 317 318 318 318 315 324 342 345 345 349 347 348 348 345 345 343 343 343 343 342 341 340 339 338 338 337 337 336 335 335 335 336 336 336 337 336 338 339 339 340 341 341 341 341 341 340 340 340 339 339 337 336 335 336 336 335 336 336 334 332 331 333 335 337 339 337 335 334 333 332 328 325 323 321 321 322 323 325 327 326 323 323 327 328 328 330 330
313 315 315 314 314 313 315 315 314 316 318 319 317 316 313 321 338 344 345 349 348 348 349 349 348 345 342 341 342 342 340 340 339 339 339 337 337 337 336 335 335 336 336 337 338 338 338 339 340 340 340 340 341 341 340 340 340 340 339 338 337 336 335 336 338 337 337 337 336 335 334 336 338 338 337 337 337 337 336 336 335 334 333 331 329 330 331 332 333 332 330 329 331 331 331 332 333
312 313 314 314 312 313 314 314 315 315 315 318 317 315 312 320 333 341 344 346 346 346 346 348 349 346 342 340 341 341 340 339 339 339 338 338 337 336 336 336 336 336 336 337 338 338 338 339 339 340 340 340 340 340 340 341 340 340 339 338 337 336 334 335 337 338 338 337 337 337 336 336 337 337 337 337 337 338 337 337 336 336 336 336 335 336 336 336 335 335 335 334 333 334 335 334 334
312 313 314 313 312 314 314 313 313 312 313 314 315 314 319 329 336 341 342 335 337 344 343 344 346 345 341 340 340 341 340 340 339 339 338 338 337 336 336 336 336 336 336 337 337 338 338 338 339 340 340 340 340 340 340 340 340 340 339 338 337 334 333 334 336 337 338 338 338 338 338 337 337 337 337 337 338 337 337 337 336 335 336 336 336 338 337 337 337 336 336 336 336 337 337 336 336
312 312 313 313 313 314 315 314 312 312 312 313 314 317 331 339 339 343 342 329 333 341 342 342 343 345 342 341 341 340 339 339 339 339 338 337 337 336 336 336 336 336 336 337 337 338 338 338 339 339 339 339 340 340 340 340 340 340 338 338 335 332 333 335 336 337 337 338 338 339 339 338 337 338 337 338 337 337 337 337 336 335 336 337 337 338 338 338 337 337 336 336 337 338 337 337 336
312 312 313 312 312 313 315 315 312 313 311 313 312 315 331 335 334 344 344 336 341 342 342 343 344 345 344 341 340 340 340 340 340 339 337 337 337 336 336 336 336 336 336 337 337 338 338 338 339 339 338 339 340 340 339 339 339 339 338 337 334 331 333 334 335 336 337 337 338 339 339 339 338 338 337 337 337 336 337 337 337 336 337 337 337 337 338 338 337 337 337 337 337 337 337 336 336
311 312 312 312 311 312 314 313 313 312 310 313 310 312 328 330 333 344 345 341 344 343 343 343 343 344 342 340 340 340 340 341 340 338 337 337 336 336 336 336 336 336 336 337 337 338 338 338 338 339 338 339 340 339 339 339 339 338 337 336 334 332 333 334 336 337 337 337 339 339 338 338 338 338 338 337 337 337 337 338 338 337 338 337 337 338 337 337 338 337 337 337 337 337 337 337 336
310 311 311 312 311 311 313 312 313 311 311 311 310 327 342 338 335 340 345 345 343 343 344 344 344 343 342 341 341 340 340 341 341 339 338 337 336 336 336 336 336 336 336 337 337 337 338 337 338 338 338 339 339 339 340 339 338 337 335 334 335 335 335 337 338 338 338 337 338 338 338 339 338 338 338 337 337 337 337 338 338 338 338 338 338 338 337 337 338 338 337 337 337 337 337 335 335
310 310 311 312 312 312 312 312 313 310 313 309 314 344 351 340 333 332 344 346 343 345 345 344 344 343 342 341 341 342 341 341 341 340 339 338 337 336 336 337 337 336 336 337 337 337 337 337 338 338 338 339 339 340 340 339 337 336 334 333 335 336 337 338 338 338 337 337 338 338 338 339 339 338 337 336 337 338 337 338 338 338 338 338 338 337 337 338 337 338 337 337 337 336 335 334 334
310 311 311 311 311 312 312 313 312 310 313 310 319 344 346 339 333 329 343 344 343 348 347 345 344 343 342 342 341 342 341 342 341 340 340 339 338 338 337 337 337 337 336 337 337 337 337 337 337 338 338 339 340 340 339 338 337 336 335 333 334 336 337 338 338 337 337 338 338 338 339 339 338 338 337 337 337 338 338 338 338 338 338 338 337 337 338 338 338 337 337 336 336 335 334 333 333
310 311 311 311 311 312 312 312 312 311 313 311 317 327 333 341 334 332 344 343 345 348 347 345 344 344 342 342 341 341 342 342 341 341 341 340 339 338 338 338 337 337 337 336 337 337 338 337 337 338 338 339 339 339 339 338 337 336 335 333 334 336 337 337 337 337 337 338 339 339 339 339 338 338 338 337 337 338 338 338 338 338 338 338 337 337 337 337 336 336 336 335 335 334 333 333 332
309 310 311 312 311 311 312 313 311 312 312 312 315 312 318 334 336 340 345 343 346 346 346 345 344 344 342 342 342 341 342 342 341 341 341 340 340 339 338 338 337 337 337 336 336 337 337 337 338 339 339 339 339 339 339 338 337 336 335 334 336 337 337 337 337 337 337 338 338 338 340 339 339 338 338 338 338 338 337 337 337 337 337 337 337 337 336 336 335 335 335 334 334 333 333 333 332
310 310 310 311 311 311 312 312 312 313 311 312 316 309 311 324 334 344 344 343 347 345 346 345 344 345 343 343 343 342 343 341 341 340 340 340 340 339 338 338 337 337 337 336 337 337 337 337 337 339 338 338 338 338 339 338 337 335 335 336 336 336 337 337 337 337 337 338 338 338 339 338 337 338 338 338 338 338 337 337 337 337 337 336 336 336 335 335 334 334 333 333 333 332 332 332 331
311 310 311 311 310 311 312 312 312 312 311 313 313 311 315 318 330 344 343 342 347 345 345 345 344 344 343 344 343 343 342 340 340 339 340 340 339 339 338 338 337 337 337 337 337 337 337 337 337 339 338 336 336 337 338 338 337 335 335 335 335 336 338 338 338 338 338 338 338 338 337 337 336 337 337 338 337 337 337 337 336 335 335 335 335 334 334 334 334 333 332 332 331 331 330 330 329
311 309 311 311 309 309 311 311 312 312 312 313 313 315 321 320 329 344 343 342 345 344 345 343 344 344 343 343 342 343 341 339 340 339 339 339 338 338 338 338 337 337 337 337 337 337 337 337 338 337 335 335 336 336 337 338 337 335 335 335 336 338 338 338 338 338 338 337 336 336 336 336 336 336 337 336 337 337 336 336 335 335 334 334 334 334 334 333 332 331 331 330 329 329 328 328 327
311 310 310 311 310 309 309 310 311 312 311 314 313 315 323 328 335 342 343 343 343 343 343 343 343 343 342 342 342 342 341 340 339 338 338 338 338 338 338 337 336 337 337 336 336 336 337 337 338 335 333 335 337 336 335 335 336 335 336 337 338 338 338 338 337 337 337 336 335 336 336 336 336 337 337 336 336 335 335 335 334 333 333 333 333 332 331 331 330 329 328 327 326 326 325 325 324
312 312 311 311 310 309 309 310 310 311 312 312 314 312 319 333 339 342 343 342 342 342 342 342 342 342 342 342 341 342 341 340 339 338 337 338 338 338 337 337 336 336 336 337 337 337 338 337 338 337 336 336 336 336 334 334 335 336 336 337 337 337 337 337 336 336 336 335 335 335 336 336 336 336 336 335 335 334 334 333 332 332 332 331 331 329 329 328 327 326 325 324 323 323 323 322 321
312 312 311 310 310 310 309 310 310 311 312 311 313 312 314 331 340 341 343 342 342 342 342 342 342 341 342 341 341 341 340 340 339 337 337 337 337 337 337 337 337 337 337 337 337 337 338 338 338 338 337 336 336 334 334 335 336 336 336 336 336 336 335 335 335 335 335 335 335 336 336 336 336 335 335 334 333 333 332 331 331 330 330 329 328 327 326 325 324 323 323 322 321 320 319 318 321
310 310 310 309 309 310 309 311 309 311 313 311 313 315 314 328 341 341 342 342 343 341 341 342 341 341 342 341 341 340 340 339 337 337 337 337 336 336 337 337 337 338 337 338 337 336 337 338 338 338 337 336 335 334 334 335 336 336 336 335 335 334 334 334 333 334 334 334 335 336 335 335 334 334 333 332 331 331 330 329 329 328 327 327 325 325 324 323 322 320 320 320 319 318 316 316 321
309 310 309 309 309 308 310 311 309 310 312 312 314 315 315 327 339 342 341 342 342 341 341 342 341 341 341 341 341 340 339 338 337 337 337 336 336 335 336 336 337 337 336 337 337 335 336 337 338 337 336 335 335 334 334 335 336 336 335 334 334 332 332 332 331 332 334 334 334 335 334 333 332 332 330 330 329 328 327 326 326 325 324 324 323 322 321 320 319 318 318 318 316 315 313 315 319
309 309 310 310 309 310 311 309 313 312 309 316 319 314 318 329 337 340 341 341 341 340 341 341 341 341 341 341 340 340 339 338 338 337 336 335 335 335 335 335 336 336 336 337 336 334 335 336 336 336 336 336 335 334 334 335 335 335 335 334 333 332 331 331 331 332 332 332 332 332 332 330 329 329 328 327 326 325 324 323 323 322 322 322 321 320 319 318 317 316 317 316 314 313 312 312 314
309 309 310 309 309 310 308 310 322 323 319 324 323 317 326 334 338 339 339 340 340 339 341 341 341 342 342 341 340 340 340 338 338 338 336 336 335 335 335 335 336 336 336 336 335 334 335 336 335 336 336 336 335 335 335 335 335 335 335 334 333 332 331 330 330 329 330 330 329 329 328 327 326 326 325 324 324 323 322 321 321 320 320 319 318 318 316 315 314 316 317 315 313 314 312 310 310
310 308 309 309 309 309 309 317 327 328 328 330 324 321 329 333 337 339 338 339 340 339 340 341 341 342 342 341 339 339 339 338 338 338 337 335 335 335 335 335 335 335 335 335 334 334 335 335 335 336 335 335 334 334 335 335 334 334 333 331 330 329 328 327 328 326 326 328 326 325 324 323 323 323 322 322 322 321 320 320 319 318 318 317 315 314 313 312 313 315 315 312 311 312 312 309 307
310 309 309 308 309 310 318 325 324 319 322 327 323 317 323 333 337 337 338 339 340 339 340 340 342 342 342 341 340 339 338 338 337 337 337 336 335 335 335 334 334 334 334 334 334 334 335 335 334 334 334 334 334 335 335 335 334 333 331 329 328 327 325 324 325 325 325 325 325 323 322 321 321 321 320 320 320 319 318 317 317 316 315 313 311 310 309 310 311 313 312 311 308 308 310 310 307
310 311 308 308 311 318 327 324 315 314 317 326 327 314 317 335 338 335 338 340 339 340 339 340 341 342 342 341 340 339 338 337 337 338 337 336 336 335 335 334 334 334 333 334 335 334 335 334 334 334 333 334 334 334 335 334 333 333 331 330 329 328 325 324 325 325 324 324 323 322 321 320 319 319 320 319 318 317 316 315 314 313 311 310 308 307 308 308 310 310 310 310 307 306 308 310 309
310 311 308 308 309 317 329 324 317 323 325 329 334 320 314 326 332 334 338 339 339 340 340 340 340 341 341 340 340 339 338 337 337 338 337 336 336 336 335 334 333 333 333 334 335 335 335 334 334 333 333 333 333 334 334 334 334 333 332 331 329 328 327 325 324 324 324 322 321 320 319 319 319 319 319 318 316 315 314 313 312 310 309 308 308 307 308 308 308 308 308 307 306 304 305 306 306
309 309 308 309 308 312 322 323 323 331 328 327 334 327 313 316 329 336 338 338 339 339 339 339 339 340 340 340 340 339 338 337 337 337 337 336 336 336 335 334 333 333 333 334 334 334 334 334 334 333 332 333 333 334 334 334 334 333 331 330 328 327 326 325 323 322 322 321 320 320 319 319 319 320 319 317 315 313 313 312 310 309 308 308 308 307 307 307 307 306 305 304 304 302 300 299 299
308 309 308 308 309 311 317 319 325 332 327 321 329 328 313 314 333 340 337 339 339 337 338 338 339 339 339 340 340 339 338 337 336 336 336 336 336 336 336 335 334 333 334 334 334 334 334 333 333 333 333 333 333 333 333 333 333 332 331 330 329 327 325 323 322 321 320 320 320 320 319 319 319 319 317 315 314 313 312 310 309 308 308 307 307 307 306 306 305 304 303 302 300 299 297 295 295
308 309 308 309 309 311 315 319 325 331 328 320 323 329 317 314 330 339 338 338 337 337 338 338 339 339 339 339 339 338 338 337 336 336 336 337 336 336 336 335 335 334 334 334 334 334 333 333 333 333 333 333 333 333 333 332 332 332 331 330 329 328 325 323 322 320 320 320 320 319 318 318 318 317 315 313 312 312 311 309 309 308 308 307 306 306 305 305 304 302 300 299 297 296 295 294 294
308 308 308 310 311 310 312 318 324 328 326 319 321 330 325 316 322 332 337 336 334 336 338 338 339 339 339 339 338 338 337 337 337 337 337 336 336 336 335 335 335 335 334 334 334 333 333 333 333 333 333 333 333 333 332 332 331 330 331 330 329 328 326 325 324 322 321 321 320 318 318 318 316 314 313 312 312 311 310 309 308 308 307 306 306 305 304 303 302 300 298 297 295 294 294 294 294
308 308 308 310 311 312 312 315 321 323 318 316 322 331 328 322 322 328 335 335 334 335 336 338 339 338 339 338 337 338 337 337 337 337 337 336 336 336 336 336 335 335 334 334 333 333 333 333 333 332 332 333 333 332 332 331 331 330 330 330 329 328 326 326 325 324 321 320 319 318 318 316 314 312 312 312 312 311 310 308 308 307 306 305 305 304 303 302 301 299 297 295 294 294 294 293 294
307 309 309 310 311 313 313 313 315 316 314 317 326 329 325 323 323 326 331 333 333 334 335 336 337 337 338 338 337 337 337 336 337 336 337 335 336 336 335 335 335 335 334 333 333 333 333 333 332 332 332 332 332 332 331 330 330 330 330 330 329 328 326 325 325 323 321 320 319 318 317 315 313 311 311 311 311 310 309 308 307 306 306 305 304 303 302 301 300 298 295 294 294 294 294 293 293
308 309 309 311 312 313 314 313 313 315 319 324 328 328 323 320 322 325 328 331 333 333 333 334 335 336 337 337 337 337 337 336 336 336 336 335 336 336 335 336 335 335 334 333 333 333 333 332 332 332 332 332 332 331 331 330 330 330 330 329 328 327 326 324 323 322 320 319 318 317 315 313 312 311 310 310 310 310 309 308 307 306 305 304 303 302 301 300 299 296 294 294 294 294 294 293 293
308 309 309 311 312 313 313 313 314 318 321 326 330 329 324 322 322 325 327 329 331 332 332 334 334 334 335 336 336 336 336 336 336 336 336 335 336 336 335 336 335 335 334 333 333 333 333 332 332 332 332 331 331 331 331 330 330 330 330 329 328 327 326 324 322 320 319 318 317 315 313 312 311 310 310 309 309 308 308 307 306 305 304 303 302 302 301 300 298 296 294 294 294 294 294 294 294
308 308 310 310 311 314 315 312 314 317 316 321 328 328 323 321 322 327 330 328 329 331 332 333 334 335 336 337 337 336 336 336 336 336 336 335 336 336 336 335 335 334 334 333 333 332 332 332 331 332 331 331 331 331 331 330 329 329 329 329 328 327 325 323 321 319 318 317 315 314 313 311 310 309 308 308 307 308 307 306 305 304 303 303 302 301 300 299 298 296 295 294 295 294 294 294 294
308 308 310 310 309 312 315 314 314 315 312 317 325 326 322 318 318 329 334 331 331 332 331 333 335 336 337 337 338 337 336 336 336 336 336 336 336 336 336 336 335 334 333 333 332 332 332 331 331 330 330 331 330 331 331 330 329 329 328 328 327 326 324 322 321 320 318 315 314 313 312 311 309 308 307 307 306 307 306 305 305 304 303 302 302 301 300 299 298 296 295 295 295 295 295 295 295
308 309 309 311 311 311 313 315 315 315 313 317 322 324 323 319 317 326 333 333 334 334 332 334 335 336 337 337 338 337 336 337 336 336 337 336 336 336 336 335 334 333 332 332 331 331 331 331 331 331 330 330 330 330 330 329 329 329 329 328 327 324 322 321 321 319 316 314 314 312 311 310 308 307 307 306 305 306 306 305 304 304 303 302 302 301 299 299 298 296 295 295 295 296 296 297 296
307 309 309 310 311 311 312 314 314 315 315 315 319 321 321 320 320 325 330 331 335 335 335 335 335 336 337 337 338 338 337 337 336 336 336 336 337 336 336 336 334 332 331 330 330 330 330 330 330 329 330 330 329 329 329 328 328 329 328 326 324 322 321 321 319 317 315 314 313 311 310 309 307 306 306 305 305 305 305 305 304 304 303 302 301 300 299 299 298 296 296 296 296 297 297 297 296
307 308 309 310 310 311 312 313 311 313 315 314 317 318 317 321 325 326 327 331 334 335 335 335 335 336 337 337 338 337 337 337 336 336 336 337 337 336 335 335 333 332 330 329 328 329 329 328 327 327 328 329 327 327 329 329 328 328 327 324 322 321 321 319 317 315 315 314 311 310 310 308 306 305 305 305 305 304 304 304 304 303 302 301 301 300 300 299 297 296 296 296 297 298 297 297 297
308 309 309 309 310 310 311 313 311 312 314 315 317 315 315 322 328 325 324 330 332 334 335 335 335 336 337 337 337 337 337 337 336 336 336 336 336 336 335 333 332 331 330 328 328 328 327 326 326 326 327 327 326 326 328 328 328 327 326 324 322 321 319 317 316 315 314 313 310 309 309 307 305 305 305 304 304 304 304 304 303 302 302 301 301 300 300 298 296 296 296 296 297 298 297 298 297
Wind_Speed
18 20 21 16 7 4 1 1 1 2 1 3 2 2 3 1 3 4 8 5 1 2 1 2 4 5 5 5 5 5 2 1 1 1 2 3 3 8 10 12 19 19 19 19 17 19 19 19 19 19 18 17 17 15 16 17 18 17 17 17 17 17 17 17 17 17 18 17 17 16 16 15 15 14 14 13 12 12 12 13 14 14 13 13 13 13 13 14 15 16 16 16 16 15 14 13 13
17 18 19 14 6 3 1 1 1 1 1 2 1 2 2 2 2 5 7 5 2 2 1 5 8 8 9 10 8 5 2 1 2 2 3 4 8 9 10 15 19 18 18 18 17 18 18 19 19 19 17 17 16 15 17 18 18 17 17 17 17 17 17 17 17 17 17 17 17 16 15 14 14 14 13 13 12 12 12 13 14 14 13 12 12 13 13 14 15 15 15 16 15 14 13 12 12
16 16 17 11 3 2 1 1 1 1 1 2 2 1 1 1 3 3 4 6 3 2 3 5 7 6 5 7 4 1 1 1 1 1 3 7 10 9 12 16 18 18 18 18 17 17 17 18 20 19 17 17 16 16 18 18 18 17 17 17 17 17 17 17 16 16 16 16 16 15 14 13 13 13 12 12 12 11 11 13 14 13 12 12 12 13 14 14 15 15 14 14 14 13 12 11 11
13 13 16 9 1 1 1 2 2 2 1 0 2 2 1 1 1 3 4 5 1 2 2 3 3 3 1 3 3 1 2 1 2 3 4 8 9 11 15 15 16 17 16 16 17 17 16 18 20 19 17 16 16 17 18 18 18 17 17 17 17 17 16 16 16 15 15 14 14 14 13 13 12 12 12 11 10 10 11 12 11 12 12 12 13 14 14 13 14 14 13 13 13 12 11 10 10
10 10 14 8 1 1 1 2 2 2 2 1 1 2 2 1 3 4 3 2 1 2 1 2 1 3 3 5 2 1 2 1 4 5 6 8 9 14 16 16 17 16 15 16 17 16 15 18 19 18 17 16 17 18 18 18 17 17 17 16 16 16 16 16 16 15 14 14 14 13 13 12 11 11 11 11 9 9 9 10 10 11 12 12 14 14 14 13 13 13 13 12 12 11 10 10 10
9 7 11 8 2 1 1 0 1 1 2 3 1 3 4 4 4 3 3 2 2 3 2 0 1 3 4 4 1 1 1 0 4 6 8 11 12 16 17 17 17 15 16 15 16 15 14 18 19 18 17 16 17 18 17 17 17 17 16 16 15 15 16 15 15 15 14 14 13 13 12 11 10 10 10 9 9 8 8 8 9 11 12 13 13 14 13 13 12 12 12 11 11 10 10 9 9
10 5 5 5 2 1 1 1 1 0 2 4 1 3 4 4 4 1 3 1 2 3 2 0 2 3 3 2 2 3 3 2 2 6 11 14 16 17 17 18 16 15 15 14 15 15 15 18 18 18 16 16 17 17 17 17 17 16 16 15 15 15 15 15 15 15 14 13 12 11 10 10 9 8 8 8 8 7 6 6 7 9 12 13 13 13 12 12 12 11 10 10 10 9 8 7 7
9 4 1 1 1 2 1 1 2 1 1 2 0 1 2 4 3 1 3 1 1 2 1 1 2 2 2 2 2 4 4 1 3 8 14 16 18 18 17 17 16 16 15 14 15 15 15 18 18 17 16 16 17 17 17 17 16 16 15 15 15 15 15 15 15 14 13 12 11 10 9 9 7 7 7 8 8 7 6 6 6 8 11 12 13 13 11 11 11 10 9 9 8 8 7 6 5
6 3 1 1 1 0 1 1 2 2 2 3 2 1 2 4 4 3 3 2 1 1 1 2 2 2 4 3 1 3 3 1 5 12 16 17 19 18 17 17 16 17 16 15 16 15 15 18 18 17 17 17 16 16 16 16 16 16 15 15 14 14 14 15 14 13 12 11 10 9 8 8 7 6 6 7 7 8 8 8 7 8 10 11 12 13 11 10 10 10 9 9 8 7 6 5 5
3 2 1 1 2 1 0 1 2 2 2 2 3 4 5 4 5 3 2 3 1 2 0 2 1 1 5 4 1 2 1 3 9 14 16 17 18 17 17 16 15 16 17 16 16 16 15 18 17 16 17 16 16 16 16 16 16 16 15 14 14 14 14 14 13 12 11 10 9 8 7 6 5 5 5 6 7 8 7 8 8 9 10 11 12 13 12 11 10 9 9 8 7 6 5 5 5
1 2 1 1 2 3 3 3 2 3 3 4 2 4 6 5 5 1 1 4 1 2 3 3 2 5 5 2 0 2 3 6 11 14 16 17 17 17 16 15 15 16 17 17 16 16 16 17 17 18 18 16 16 16 16 16 15 15 15 14 14 13 13 13 12 11 10 9 8 7 7 6 5 5 4 5 7 8 7 7 8 9 10 12 12 12 12 11 10 9 8 8 7 6 5 4 4
2 1 1 2 3 4 3 3 3 4 4 5 4 2 4 6 4 3 3 3 2 2 4 5 4 6 5 2 0 2 5 8 10 14 16 16 16 16 15 14 15 16 16 16 16 15 15 15 17 19 18 17 17 16 15 15 15 14 14 14 13 13 13 12 11 10 9 9 9 9 9 9 9 8 7 7 8 9 8 8 8 9 10 11 11 12 12 11 10 9 8 7 7 6 5 4 3
2 2 2 3 2 3 3 2 2 2 2 3 3 1 3 5 4 2 4 1 1 0 1 4 6 6 3 2 0 2 6 9 11 13 15 15 15 15 14 14 15 15 15 16 15 15 16 15 17 18 17 16 16 15 14 14 14 13 13 13 13 12 11 10 10 10 9 10 10 12 13 12 12 12 11 9 9 9 9 9 9 9 10 10 11 11 12 11 10 9 8 7 6 6 5 4 4
2 2 3 3 1 2 4 2 2 2 2 2 2 0 1 3 2 3 4 2 2 2 2 4 8 5 2 3 2 4 9 12 13 13 15 14 14 15 14 14 15 15 15 15 15 15 16 17 18 18 16 16 15 15 14 14 12 12 12 12 12 11 10 10 10 10 11 12 13 13 14 13 13 14 14 12 10 10 10 10 10 10 10 10 10 11 11 11 10 9 9 7 6 5 5 4 4
2 2 1 2 2 3 4 3 3 5 3 2 2 1 3 3 1 2 2 2 1 1 1 4 4 2 3 6 4 6 13 17 16 15 15 14 14 14 14 14 14 14 14 15 15 15 17 18 18 16 16 15 15 14 13 13 11 11 11 12 11 10 9 9 9 11 12 13 14 13 13 13 13 14 14 14 13 11 11 10 10 10 9 9 9 9 9 9 9 8 8 7 6 5 4 4 4
1 2 1 3 4 4 5 4 4 4 3 3 3 2 3 2 3 1 1 1 3 3 2 2 2 2 1 5 1 8 19 20 18 16 15 15 14 14 13 13 13 13 13 14 15 16 18 19 17 15 15 15 15 14 12 12 11 11 11 11 10 8 8 9 10 12 13 14 14 14 13 13 13 14 14 15 15 14 13 11 10 9 9 9 8 8 8 7 7 7 6 6 5 4 4 4 4
1 1 3 4 5 6 6 6 5 4 3 4 4 1 3 1 1 1 1 2 6 6 2 1 1 5 2 3 4 17 23 21 20 18 17 16 15 14 14 14 13 13 13 14 15 17 19 18 16 15 15 15 15 14 12 12 11 11 11 10 9 7 8 10 11 12 13 13 14 14 14 13 13 13 14 14 15 15 14 13 11 10 9 8 7 6 6 5 5 4 4 4 4 3 3 4 4
3 3 5 5 5 7 8 9 6 3 4 4 5 3 5 4 4 4 3 4 4 5 2 2 3 5 2 3 12 22 23 22 22 20 20 18 16 15 14 15 15 15 14 15 15 18 17 16 17 16 16 15 14 13 12 12 12 12 10 9 8 7 9 10 9 10 11 12 13 14 13 13 12 11 11 12 14 14 14 14 12 11 9 7 6 5 4 4 3 3 3 4 4 3 3 3 2
4 2 5 7 6 6 7 9 7 4 5 6 3 3 5 6 7 6 4 3 4 6 4 1 0 2 4 9 16 22 22 22 22 21 21 19 17 16 15 15 16 16 16 16 16 17 16 15 16 16 15 15 14 13 12 12 12 11 9 9 8 8 9 9 8 9 9 10 12 13 13 13 11 9 9 10 11 12 12 12 11 10 9 7 6 5 4 4 3 3 4 5 5 4 3 2 2
4 3 7 7 6 5 5 7 8 6 6 7 5 2 3 5 6 5 5 5 5 7 5 4 5 6 7 11 17 21 21 22 21 22 21 18 16 15 16 16 16 17 17 16 16 16 15 14 15 14 14 15 14 13 12 12 12 10 9 8 7 7 9 9 8 7 7 8 10 10 11 10 8 8 9 9 9 9 9 10 9 8 7 6 5 5 4 4 4 3 4 5 4 4 3 2 2
4 5 7 5 6 7 7 6 7 6 5 5 4 3 3 4 4 6 8 6 4 7 8 8 9 11 13 13 18 21 21 21 21 22 20 17 15 14 14 15 16 16 16 16 15 15 15 14 15 14 13 14 14 13 12 11 10 9 8 7 6 6 7 8 8 7 7 8 8 8 9 9 8 7 8 8 7 7 7 8 7 6 6 5 4 4 3 3 3 3 3 4 4 4 4 3 3
4 5 3 5 8 8 6 7 7 4 3 3 4 4 4 5 4 8 11 7 4 4 7 10 8 11 17 17 19 20 19 20 21 22 19 16 16 14 14 15 15 15 15 15 15 15 15 14 14 13 13 14 13 12 12 11 10 8 8 7 5 6 8 9 8 6 6 6 6 7 7 8 8 7 7 7 6 6 6 7 6 5 5 5 4 3 2 2 3 3 3 4 4 4 4 4 4
5 5 3 5 9 8 4 5 6 5 5 5 4 4 4 6 5 7 10 7 3 1 4 7 5 9 16 18 19 19 19 19 21 22 19 16 17 16 17 17 16 16 15 15 15 13 14 14 13 13 14 14 13 12 12 12 9 7 7 6 5 7 10 9 7 6 5 5 5 5 5 6 6 6 6 5 5 5 6 6 6 6 6 5 5 3 3 3 3 3 4 4 4 4 5 5 5
6 4 4 5 7 8 5 4 5 6 6 5 3 4 6 7 6 5 8 8 3 3 5 4 5 10 15 17 18 19 19 20 21 21 17 15 16 16 16 16 16 16 15 16 15 13 13 14 13 13 15 14 13 12 12 12 9 7 7 6 6 8 10 8 6 4 3 3 4 4 4 5 5 4 4 4 5 5 5 5 5 5 5 5 5 4 2 2 2 3 3 3 3 4 5 5 5
9 5 3 3 4 6 5 2 3 5 4 3 3 4 5 6 5 6 9 8 5 4 2 6 8 11 14 16 17 17 17 18 19 18 15 12 14 15 15 14 15 16 17 17 15 13 13 14 14 14 14 14 13 12 12 11 8 8 8 6 7 8 8 7 5 3 3 3 3 3 4 3 3 4 4 4 4 4 4 4 4 4 4 5 4 3 2 2 2 3 3 3 4 4 5 5 5
9 7 3 3 3 5 6 4 3 4 2 4 6 3 3 3 4 6 7 5 3 1 5 8 10 12 13 14 15 15 15 16 18 18 14 11 14 16 15 15 15 16 17 17 16 14 13 14 14 14 14 15 14 12 10 9 9 10 10 8 8 7 7 6 4 3 3 2 2 2 2 2 2 3 3 3 3 3 3 3 3 3 3 4 3 3 3 2 3 3 3 4 4 5 5 6 6
3 8 6 4 4 4 5 6 5 3 2 6 7 3 4 4 4 6 5 5 4 6 7 8 10 12 13 13 13 14 14 15 17 17 15 14 15 16 16 15 15 16 16 17 16 14 14 16 15 14 15 15 14 11 10 11 11 12 11 10 9 6 7 5 4 4 3 2 2 1 1 1 1 1 2 2 1 1 2 2 2 2 2 3 3 3 3 3 3 3 3 3 4 4 5 6 6
3 7 7 6 6 4 5 4 4 4 4 7 6 3 4 4 5 6 5 6 7 8 8 9 10 10 12 12 12 12 12 15 16 16 17 16 16 16 16 16 16 16 17 17 16 14 14 17 16 15 15 14 13 12 12 13 12 12 12 11 10 8 7 5 4 4 3 3 2 1 1 1 1 1 0 0 1 1 2 2 2 2 2 2 3 3 3 4 4 3 3 3 3 4 5 5 6
2 5 5 6 6 9 11 6 4 6 6 7 7 3 7 9 8 6 6 8 8 8 8 9 10 9 10 11 11 11 11 14 15 15 16 16 15 16 16 15 16 16 16 16 15 14 15 16 17 16 15 14 13 14 14 13 12 12 11 11 10 9 7 6 5 5 4 4 2 2 2 2 2 2 2 1 1 2 2 2 3 2 2 2 2 3 3 4 3 3 3 3 3 3 4 5 6
4 4 3 4 5 10 14 9 6 8 5 8 9 7 10 12 9 5 7 9 10 8 8 8 9 10 10 11 11 10 11 13 14 14 15 15 14 15 15 14 15 15 14 15 15 15 15 16 17 15 14 14 14 15 14 14 13 11 11 11 9 8 7 6 5 6 5 4 3 3 3 3 3 3 3 2 1 2 3 3 3 3 2 2 2 3 3 3 3 2 3 3 3 4 4 5 6
6 5 4 5 5 6 11 12 11 10 4 8 12 11 8 9 8 7 8 11 12 10 10 9 9 10 10 11 11 10 10 12 12 12 11 12 13 13 14 14 14 14 14 15 16 16 16 17 17 15 14 13 13 14 15 14 12 11 11 10 8 7 6 5 5 5 5 4 4 4 3 3 4 4 3 3 2 3 4 4 4 3 2 2 2 3 4 3 4 3 3 3 4 4 4 5 6
7 6 6 8 8 4 8 12 15 13 4 8 14 8 4 4 7 10 10 12 12 11 11 10 11 12 12 11 11 10 9 10 11 11 10 11 11 12 13 14 14 14 14 15 15 16 16 16 17 15 14 13 13 14 15 15 13 11 11 9 7 6 5 5 5 6 5 5 4 4 3 3 3 4 4 3 3 4 5 4 4 3 3 3 4 5 5 5 5 5 4 4 4 4 4 4 5
7 9 8 10 12 7 6 7 13 15 7 9 15 6 1 2 7 11 12 14 13 10 10 12 12 12 13 11 11 10 8 8 9 11 12 11 11 12 13 13 14 13 13 14 16 17 17 15 16 16 14 14 15 15 15 15 13 12 10 8 7 5 5 6 6 6 5 4 4 3 3 3 3 3 4 4 5 5 5 4 4 4 3 4 5 6 6 6 6 5 5 5 4 4 3 3 4
8 10 9 10 13 10 7 4 6 14 12 11 15 10 2 2 8 12 13 15 14 12 11 12 12 12 12 11 11 11 8 8 8 11 13 12 13 14 14 15 15 14 14 16 17 17 16 16 16 16 16 14 15 16 16 16 14 11 10 8 8 7 7 7 6 6 5 4 4 4 4 4 4 5 5 6 6 6 5 4 4 3 3 5 6 7 7 6 5 5 5 5 4 3 3 3 3
12 12 10 8 10 11 10 5 5 14 16 14 12 12 8 3 8 12 13 16 16 14 12 11 11 12 12 12 12 11 9 9 9 10 13 13 14 15 15 16 17 16 16 17 17 17 17 17 16 15 15 15 15 17 17 16 14 12 11 10 9 9 9 8 7 6 5 4 4 4 6 6 6 6 7 6 6 6 5 4 3 3 5 7 8 7 6 5 5 4 4 4 4 3 3 2 4
11 9 7 7 7 7 7 4 6 14 15 15 15 14 12 8 9 12 13 15 15 14 11 9 11 12 12 12 12 12 10 9 9 12 12 12 14 16 16 17 18 18 17 17 18 20 20 19 18 15 15 17 17 18 17 16 14 13 13 13 12 11 10 9 7 7 7 6 6 6 7 7 7 7 6 6 5 4 4 3 3 5 7 7 7 6 5 5 5 4 4 3 3 4 3 3 7
7 5 4 6 6 5 6 4 6 11 11 13 15 11 11 11 10 13 13 13 14 15 14 13 13 13 13 14 14 13 11 8 10 13 12 12 14 17 18 19 20 19 19 19 19 22 22 20 21 19 18 19 19 19 18 17 16 15 14 13 13 12 11 10 9 8 8 8 9 9 8 7 7 7 6 5 4 3 3 4 5 6 7 7 7 6 6 6 5 4 3 2 2 3 4 6 11
5 7 6 6 7 6 8 10 7 9 9 8 9 9 11 12 11 12 13 15 16 16 17 15 16 15 13 15 15 12 9 7 11 13 13 14 14 17 18 20 22 21 21 21 19 21 22 20 22 22 20 19 19 18 18 18 16 15 14 13 13 13 12 12 11 11 11 10 11 11 9 8 8 7 5 4 2 3 4 5 6 6 6 6 7 6 6 6 5 3 1 2 4 7 8 7 11
2 6 8 6 8 6 8 10 5 6 8 4 8 10 9 8 8 11 14 15 15 15 16 15 15 15 14 15 15 12 9 9 11 12 14 16 16 17 17 18 21 21 21 21 19 20 21 18 19 22 21 19 17 17 17 16 14 13 12 14 15 14 14 14 13 14 14 14 13 12 10 8 7 5 4 3 4 5 5 6 6 6 5 6 6 6 6 5 4 1 2 5 7 10 12 11 8
1 3 7 6 9 8 7 7 2 2 3 1 8 8 4 4 6 9 13 14 12 14 16 14 13 14 13 14 13 12 12 11 12 12 13 16 18 18 16 17 19 18 19 19 19 19 19 18 18 19 20 19 18 17 17 16 16 14 13 14 15 15 16 16 16 17 17 15 13 12 10 8 6 4 4 3 4 5 6 6 5 5 5 5 5 5 4 3 1 2 5 6 7 8 11 14 12
3 2 4 4 10 9 4 6 5 3 1 3 8 4 3 6 9 9 10 13 13 13 15 15 14 13 11 10 10 12 13 11 12 13 14 16 19 19 17 18 18 19 19 19 20 19 18 19 20 19 20 19 18 18 19 19 17 16 16 16 17 17 18 19 19 18 17 15 13 11 10 7 6 5 5 5 5 6 6 5 5 4 4 4 4 3 2 2 3 5 7 7 8 9 10 14 17
5 4 5 4 8 7 6 10 9 5 4 6 8 5 4 6 11 11 9 11 13 12 14 15 14 12 10 10 11 12 12 11 11 12 15 16 18 19 18 19 19 18 19 19 20 19 18 20 20 19 19 17 18 20 20 19 18 18 20 21 20 21 19 18 19 19 17 15 13 11 10 8 7 6 6 6 7 6 5 4 3 3 3 3 3 4 6 7 7 8 9 9 10 11 12 12 15
5 5 6 5 5 6 10 13 10 5 5 6 7 8 4 3 9 12 10 11 14 13 14 15 13 11 10 11 12 12 11 11 11 12 14 15 18 19 18 20 18 14 17 18 18 17 18 20 19 18 19 18 19 21 21 19 19 20 20 21 21 22 20 18 18 18 16 15 13 11 10 9 7 7 7 8 8 6 4 3 3 3 4 6 7 9 9 10 10 10 10 10 10 11 12 10 10
6 4 7 8 4 5 8 10 7 3 2 4 5 6 5 4 6 11 13 13 14 16 16 15 13 13 13 13 13 13 13 12 11 12 14 15 18 19 18 19 16 13 16 18 17 16 17 18 17 17 18 18 19 21 22 20 21 22 21 21 20 20 21 20 19 17 16 14 13 12 10 8 7 6 7 7 6 4 3 4 4 5 7 9 10 11 12 12 13 13 12 12 13 14 15 14 12
4 5 6 7 6 4 4 4 3 2 3 5 7 5 6 6 3 7 13 14 15 18 18 16 15 17 17 17 16 14 12 12 12 12 14 15 17 20 19 19 18 15 16 18 17 17 17 17 17 16 17 18 19 21 21 20 22 22 21 22 21 20 21 22 20 18 16 15 13 12 9 7 5 5 6 5 3 3 4 5 6 7 9 10 11 12 13 14 15 15 15 16 16 17 18 19 19
4 6 5 4 4 3 2 2 2 3 5 9 12 11 9 6 3 6 11 13 15 16 15 16 17 19 19 17 16 13 10 11 13 12 14 16 18 20 19 19 19 17 17 18 17 17 18 17 17 17 17 18 20 20 19 19 21 20 20 23 23 22 23 23 21 19 17 15 12 10 8 6 4 3 3 2 3 5 5 6 7 8 10 11 13 14 15 15 15 16 16 17 18 19 21 22 24
6 7 5 3 3 2 2 1 2 3 6 9 13 13 8 6 4 7 9 9 12 12 11 15 18 19 20 17 13 12 11 12 13 13 14 18 21 21 20 19 19 18 18 18 18 18 19 19 18 18 17 20 21 20 19 18 18 19 22 24 24 23 24 23 21 19 17 14 12 11 8 5 2 1 2 4 6 6 7 8 9 10 12 13 14 15 15 16 16 17 17 18 19 21 23 24 25
8 10 10 4 3 2 1 2 2 5 8 4 7 10 7 8 6 7 9 7 10 13 12 16 19 19 19 17 14 13 12 13 14 12 13 17 19 21 21 21 20 19 19 19 19 19 20 19 20 19 19 21 21 20 20 17 16 20 24 24 24 24 23 22 20 19 18 15 14 12 9 6 4 4 5 6 8 8 8 10 11 12 13 13 14 15 16 16 17 17 18 20 21 22 24 25 26
10 11 10 7 5 4 4 5 5 7 5 2 4 10 7 9 4 5 10 10 12 15 14 16 19 19 18 17 17 14 12 14 14 12 13 15 16 18 21 22 21 21 22 22 21 21 20 20 20 21 21 22 21 20 20 19 18 23 25 23 23 23 23 22 21 19 19 17 14 12 9 7 6 6 7 8 9 9 10 11 12 13 13 13 14 15 16 16 17 18 20 21 23 23 24 26 26
14 13 12 11 8 6 8 7 5 5 3 1 5 11 7 8 3 7 13 14 14 15 15 16 15 15 16 16 16 14 13 16 14 12 14 14 16 19 22 22 22 23 25 23 22 22 21 20 21 22 22 22 21 20 21 21 22 24 24 23 22 22 22 22 20 20 19 16 13 11 9 8 7 6 8 10 11 11 11 12 12 13 13 14 15 16 16 16 17 20 21 23 24 25 25 27 27
12 8 8 10 7 5 6 6 4 4 2 3 6 7 6 4 2 4 10 12 13 13 12 11 9 8 9 10 13 14 16 17 15 15 15 15 18 22 22 23 22 24 25 24 22 23 23 22 22 23 22 21 21 22 23 22 23 24 24 22 22 22 22 21 20 19 17 15 13 11 10 9 7 7 10 12 13 12 13 13 13 13 15 15 15 16 16 17 18 21 22 24 25 25 26 27 27
8 3 4 8 6 3 2 1 2 3 3 4 5 4 2 1 2 2 2 5 8 10 10 9 8 8 9 10 13 15 17 17 16 16 16 17 21 23 22 22 22 23 24 24 23 24 25 23 23 25 25 22 23 24 23 22 23 24 23 22 22 22 22 21 20 18 16 14 13 11 10 8 7 9 13 14 14 13 13 14 14 15 15 16 16 16 17 17 18 21 22 24 24 24 26 26 26
6 5 7 6 3 4 3 1 3 2 4 4 3 5 2 1 2 2 3 5 7 9 12 12 12 12 12 13 13 15 17 18 18 17 16 18 21 22 23 23 22 22 23 26 25 25 26 25 24 25 26 24 24 24 23 24 23 23 23 23 23 23 22 21 20 19 16 14 13 11 10 9 8 11 14 14 14 14 14 15 16 16 16 16 16 16 16 17 18 20 22 23 24 24 25 25 24
6 8 8 5 3 1 2 2 2 3 6 3 2 7 4 3 3 2 3 7 9 10 13 13 13 13 14 14 15 16 18 19 19 19 16 17 20 23 25 24 23 23 24 26 25 23 24 25 24 25 26 25 26 26 25 25 24 24 24 23 23 23 22 21 20 18 17 16 14 12 10 10 10 13 15 15 14 15 16 16 16 17 17 16 16 16 16 17 18 20 21 22 23 23 23 23 23
4 7 7 5 4 5 2 2 3 5 5 2 3 5 5 6 5 2 6 10 10 11 13 13 14 15 15 15 15 17 19 18 18 18 15 14 20 24 26 24 24 25 24 24 25 24 23 25 26 27 28 27 27 27 26 25 25 25 24 24 24 24 22 21 20 18 17 16 14 13 12 10 12 14 15 15 15 16 16 17 16 17 17 16 16 16 16 16 17 19 20 21 21 21 20 20 21
1 5 6 2 3 5 3 2 1 4 4 3 4 4 4 5 5 4 8 11 12 12 11 12 15 16 15 14 14 16 19 18 18 18 15 15 20 24 26 25 25 27 26 24 27 29 25 24 26 26 27 28 27 27 28 26 26 26 26 26 25 24 23 22 20 19 18 16 15 15 13 11 14 16 16 16 16 16 16 17 17 17 17 17 17 17 16 15 17 18 19 19 19 18 18 18 20
6 8 9 6 3 1 3 2 0 2 3 3 5 6 4 3 5 8 10 10 12 13 12 13 15 16 16 14 14 16 18 19 18 18 16 16 19 23 25 25 24 28 30 26 27 30 25 22 24 25 27 29 27 27 29 29 28 27 27 26 25 25 24 22 21 20 18 17 16 16 13 12 16 17 17 16 16 16 16 17 17 17 17 18 18 17 16 15 16 18 19 18 17 16 16 17 17
10 9 8 9 6 3 6 6 2 1 1 2 4 5 3 2 4 9 11 8 8 13 14 13 13 15 15 13 14 16 18 19 18 18 18 16 18 21 23 24 25 27 30 29 27 27 25 24 27 27 27 28 28 28 29 29 29 27 27 27 26 25 24 23 23 21 19 19 19 16 12 13 17 18 17 17 16 16 16 17 17 18 18 18 18 17 16 15 17 18 19 18 16 15 15 15 15
Wind_Direction
359 358 1 11 40 76 71 344 59 40 62 99 55 80 75 322 306 341 9 17 83 56 350 54 108 120 104 91 103 100 71 243 245 317 357 45 103 140 148 151 150 147 148 151 155 161 169 174 174 169 163 162 156 154 155 150 147 143 140 140 139 136 134 133 132 131 130 129 127 127 127 127 126 122 117 113 107 101 95 91 85 79 81 87 92 98 101 106 112 110 108 109 109 109 108 106 105
360 358 1 13 42 57 28 326 64 29 25 97 99 67 64 296 349 14 2 349 13 69 126 101 102 90 88 98 109 124 107 327 325 0 38 104 129 136 149 153 152 149 150 152 157 162 168 175 174 169 164 160 156 155 152 146 144 143 143 142 140 137 135 133 131 130 129 128 127 127 127 127 125 121 118 112 106 102 94 93 92 84 83 86 90 100 104 106 112 113 113 113 112 111 109 107 104
359 356 1 15 61 65 69 351 71 91 23 56 117 156 334 15 29 9 322 317 359 119 149 124 117 90 105 129 117 71 89 119 204 97 83 135 143 148 155 154 155 152 152 156 159 164 168 174 173 169 165 158 158 155 147 145 146 145 145 142 140 137 134 132 129 129 128 128 127 127 127 126 124 121 116 111 107 104 97 96 97 91 90 92 94 101 105 108 111 115 116 114 113 110 109 106 104
2 356 2 16 96 52 76 46 91 128 97 312 98 157 249 57 349 304 298 313 337 213 191 161 129 66 2 132 118 58 93 107 153 143 135 157 158 153 157 156 156 153 155 160 162 165 166 172 171 168 163 158 157 151 146 146 147 147 144 142 139 136 135 134 131 129 127 126 125 125 125 124 123 121 117 113 110 105 100 98 96 91 91 99 106 107 106 110 112 116 117 115 114 112 111 108 106
6 0 8 27 111 34 86 89 129 132 116 205 64 135 196 203 280 281 296 309 206 266 196 165 110 78 64 80 118 204 89 86 138 159 158 162 159 151 157 158 156 156 159 161 163 164 165 170 170 166 160 156 153 148 147 148 148 146 143 141 140 139 138 135 131 128 126 125 124 124 124 124 123 121 119 117 114 112 106 98 93 90 87 94 111 115 111 114 117 118 118 117 118 118 116 113 106
11 6 17 42 109 110 116 71 183 130 145 196 105 125 178 220 257 279 305 301 232 297 1 280 82 116 102 75 50 47 23 38 140 171 169 162 159 155 157 157 157 159 159 160 162 162 165 171 169 162 157 154 149 147 149 150 149 146 144 143 142 140 135 132 129 126 126 126 125 125 124 125 125 124 124 125 123 118 112 103 97 98 95 96 110 119 115 115 120 121 122 125 127 123 117 109 98
17 12 17 44 77 42 86 309 251 175 179 190 140 117 152 235 253 277 296 286 245 283 315 285 124 130 113 109 122 66 343 280 161 173 166 159 156 157 158 158 158 159 158 159 162 161 165 171 168 159 155 152 149 150 153 152 149 147 146 144 141 136 131 130 128 126 125 126 127 125 124 126 127 128 129 129 128 120 118 115 109 108 106 107 113 120 121 121 123 124 126 132 129 118 112 103 91
23 29 5 23 29 15 55 284 271 204 174 180 206 119 162 256 257 249 257 236 236 245 294 177 178 256 117 127 163 66 18 335 175 165 157 154 154 158 160 160 159 159 159 158 160 161 168 170 163 158 155 153 154 156 155 154 151 149 146 141 138 134 132 130 128 126 126 126 124 121 119 121 126 131 131 130 131 131 124 119 124 116 108 108 112 118 124 129 131 130 128 129 125 117 113 105 94
28 32 194 64 112 38 49 285 293 244 207 191 183 179 218 251 250 253 249 252 225 176 352 184 210 265 140 123 139 76 29 68 147 154 153 153 156 159 161 164 160 158 159 158 159 160 170 170 162 159 156 156 159 159 157 156 154 150 145 141 140 138 136 132 129 127 123 120 116 113 114 118 125 128 131 133 133 140 130 118 123 118 110 107 109 113 116 121 128 131 129 129 128 126 122 107 97
34 17 174 95 165 212 210 240 285 268 253 240 185 176 203 226 238 251 316 329 307 149 104 153 131 136 140 134 136 80 66 139 145 148 151 155 158 160 162 164 159 156 156 156 159 162 169 171 165 159 158 160 161 161 159 157 154 150 147 145 145 142 138 132 127 121 114 111 109 107 109 113 119 119 130 137 130 136 132 120 121 118 117 113 110 111 111 115 124 129 129 130 130 127 122 110 102
140 27 165 144 180 204 213 226 251 266 292 304 280 169 184 202 210 179 345 303 325 134 162 181 157 136 129 134 238 67 129 159 154 151 153 157 159 160 159 160 161 157 155 156 161 165 166 170 168 160 160 164 163 163 160 158 156 152 151 149 146 140 135 130 124 116 112 109 106 105 105 109 112 110 123 135 127 127 125 120 120 119 122 119 113 112 114 119 124 127 128 126 124 122 119 111 102
195 123 159 174 194 208 207 220 236 270 311 316 311 111 147 172 164 131 178 259 300 138 175 200 167 140 131 135 193 99 153 168 160 157 157 159 160 160 157 159 163 158 156 158 162 165 165 169 167 160 162 166 167 164 161 161 158 156 154 149 144 138 134 130 123 117 115 113 108 106 105 104 101 98 103 114 119 121 120 118 118 121 126 122 116 113 114 117 121 124 125 122 118 116 114 109 102
203 146 159 185 196 195 177 205 225 286 305 296 289 84 129 142 116 153 161 80 305 242 189 182 146 137 134 126 197 175 181 178 163 160 160 161 161 159 158 160 162 159 160 161 163 168 167 168 164 161 165 169 167 163 162 163 162 160 154 147 142 139 137 131 124 121 119 116 112 108 103 98 92 88 89 97 108 114 117 119 122 127 130 125 117 114 112 113 115 118 121 120 118 116 113 110 102
200 155 182 196 170 175 170 189 188 220 241 256 259 234 84 103 107 190 143 107 239 299 7 141 144 148 147 143 213 211 190 178 166 163 164 163 159 158 159 162 163 162 164 166 167 169 171 170 163 162 168 172 168 164 166 166 165 161 151 145 143 140 138 131 125 125 123 118 114 108 99 94 89 84 82 86 96 108 115 121 128 133 133 128 120 114 112 110 110 112 115 117 118 119 118 115 107
193 154 153 175 160 186 196 199 190 205 217 233 249 97 80 48 357 189 128 145 222 294 55 109 152 183 158 173 212 201 178 171 166 163 163 160 156 158 161 162 163 164 168 169 170 172 172 168 163 165 169 172 170 167 169 168 166 160 150 145 143 139 134 128 126 126 124 120 115 107 99 96 94 88 82 80 86 98 109 118 126 135 136 130 122 115 111 107 105 106 108 112 116 120 124 124 114
179 127 120 187 187 197 200 183 174 195 205 225 240 108 111 43 16 10 334 225 132 150 178 116 208 316 189 202 234 158 162 163 163 161 159 156 154 157 160 161 162 166 170 172 176 175 169 165 165 170 171 171 170 169 170 167 165 159 151 146 143 138 130 126 127 126 122 119 112 105 100 99 96 92 88 82 83 90 99 108 117 129 134 133 125 117 111 106 103 103 105 109 112 120 127 125 113
142 172 191 200 197 198 185 171 174 186 194 232 250 189 170 112 38 62 55 127 130 152 189 61 340 343 310 240 117 142 153 158 160 159 159 156 158 161 162 164 165 170 174 177 180 173 167 168 170 172 172 171 170 170 169 167 164 159 152 147 144 133 125 125 124 123 120 116 111 106 103 98 94 92 90 86 84 85 90 97 105 116 124 129 127 120 115 108 104 103 108 109 109 119 130 126 102
180 188 207 207 193 187 174 176 180 157 157 208 239 192 187 187 156 160 130 90 104 155 194 15 24 15 34 123 129 142 151 158 161 162 164 164 166 166 166 170 172 173 174 178 179 172 170 173 173 173 173 171 171 171 169 167 164 160 155 149 145 132 126 125 122 122 119 116 113 110 106 101 98 93 87 86 88 87 88 91 97 103 110 118 122 122 116 111 106 107 118 118 116 121 136 138 94
193 161 212 214 181 174 174 178 173 153 164 184 207 168 192 190 152 168 186 144 140 176 203 292 334 62 102 124 136 147 155 161 166 169 171 172 171 168 167 171 174 175 175 176 177 175 175 177 176 174 173 173 172 171 170 169 165 161 158 154 149 139 134 128 123 123 118 116 116 113 110 107 101 95 91 89 89 90 91 91 94 97 100 106 111 116 113 112 109 113 124 124 120 113 125 135 56
197 180 219 210 165 186 203 188 184 186 178 179 194 178 193 179 152 170 177 154 173 201 200 201 208 188 159 146 150 157 160 167 172 175 178 175 170 166 166 170 175 177 176 174 175 177 178 179 177 174 175 175 173 172 171 171 167 162 161 161 153 145 142 135 129 126 120 117 114 112 110 105 97 93 95 96 91 91 91 91 93 94 97 99 104 105 104 108 103 104 116 116 114 99 92 80 33
173 199 220 181 162 197 205 199 201 197 182 180 174 158 181 168 163 169 151 152 206 228 222 217 208 182 170 164 163 165 166 173 178 180 181 174 166 165 166 171 175 174 172 173 174 177 179 180 177 175 178 178 175 173 172 173 170 166 167 165 154 149 150 143 135 127 123 118 112 109 104 98 93 89 91 95 95 98 96 93 91 90 93 95 97 93 87 95 89 89 99 103 105 92 78 60 36
170 209 217 157 172 194 191 195 199 178 167 177 153 161 167 142 158 176 170 188 219 218 232 235 218 174 170 169 168 170 173 179 184 185 182 172 167 165 167 171 173 170 170 174 175 177 180 180 178 177 180 181 180 175 174 175 169 169 171 165 156 153 152 148 140 130 123 116 109 105 100 94 89 86 86 87 93 103 104 101 99 96 98 104 104 89 80 85 83 87 88 91 92 83 70 51 29
213 213 194 182 184 189 184 186 188 163 166 176 173 171 138 142 171 190 194 213 215 159 276 255 227 175 167 167 170 175 179 185 187 187 182 173 170 167 169 172 172 171 171 174 174 177 181 181 181 182 184 186 183 179 178 175 171 173 171 165 162 154 152 151 142 134 124 114 107 103 101 94 84 81 80 78 85 98 107 106 104 107 109 115 116 105 92 85 77 77 77 80 79 72 59 42 27
242 222 185 199 188 196 199 169 172 172 182 173 156 154 156 180 179 176 214 233 269 321 289 238 188 167 163 168 178 181 184 188 189 186 180 175 173 169 172 173 172 171 171 174 173 177 182 182 184 186 190 189 184 183 178 176 176 174 170 166 163 157 156 156 151 148 138 125 114 107 103 92 77 69 67 69 76 89 108 108 101 110 117 120 119 115 104 81 62 51 55 61 58 57 48 36 29
232 220 163 190 190 215 224 170 145 162 184 153 148 176 190 201 161 161 211 238 289 321 239 175 159 161 171 180 184 186 187 189 188 183 178 175 170 169 174 175 172 172 172 173 173 176 181 184 186 187 192 189 184 184 179 177 179 174 171 166 161 161 163 164 171 180 167 150 129 115 105 86 67 56 54 57 64 80 109 109 96 104 116 115 111 106 89 59 49 38 34 39 34 39 39 31 26
216 201 159 168 183 215 231 234 192 163 177 171 173 207 240 213 168 184 208 237 277 189 153 154 159 169 182 190 186 187 191 190 187 181 178 173 169 172 178 178 174 174 174 172 172 175 180 184 184 186 189 188 184 182 178 178 180 177 174 169 166 166 170 177 186 183 176 169 145 124 103 75 54 45 42 44 54 86 112 105 87 93 106 95 81 70 56 44 46 39 29 29 28 30 27 23 23
172 188 191 194 189 195 221 237 217 178 181 189 183 193 212 198 206 212 199 215 207 160 158 161 171 181 186 190 189 191 195 194 187 179 179 178 176 177 180 182 177 174 172 171 173 175 180 183 181 183 185 186 185 180 179 183 182 180 177 175 175 175 178 185 191 183 181 184 170 152 88 40 26 25 35 40 54 101 110 107 89 86 89 72 59 55 48 39 37 31 22 18 22 27 22 17 23
123 171 188 213 230 232 222 227 207 194 203 190 172 166 186 184 223 218 176 186 186 166 165 174 186 191 190 190 190 194 198 196 189 183 184 184 182 181 183 185 179 173 174 175 173 174 181 184 183 185 185 184 182 181 183 186 186 183 181 181 182 182 185 190 198 200 200 205 214 232 311 349 340 326 344 61 92 113 111 112 100 87 73 61 56 51 40 24 18 13 7 7 16 24 21 17 26
139 149 174 196 221 238 228 216 186 195 208 174 154 208 215 197 206 200 165 169 175 175 173 182 197 197 195 194 192 198 197 193 192 191 193 191 186 183 185 186 180 175 177 178 175 175 180 184 186 186 185 182 182 185 186 187 189 188 184 185 185 185 193 204 215 221 221 224 239 260 298 312 290 264 239 218 130 115 111 101 96 100 91 62 45 39 28 13 5 2 359 2 9 15 18 22 34
156 156 199 169 194 229 219 209 189 193 201 158 168 237 226 193 191 172 160 167 166 181 189 191 201 201 199 197 197 200 196 195 194 192 193 194 189 182 182 184 183 178 176 180 180 178 177 183 187 184 181 183 186 188 188 190 192 191 188 187 189 195 203 214 219 222 225 230 251 268 283 284 263 250 233 213 162 110 103 108 107 113 95 57 41 32 25 12 4 359 0 3 358 5 16 23 37
154 151 206 196 210 212 193 196 188 188 202 164 185 241 231 175 179 172 171 177 170 182 196 197 201 204 202 199 200 197 193 192 186 180 177 181 183 179 179 181 183 181 179 183 183 181 181 186 190 185 180 182 189 192 191 194 194 192 192 192 199 208 213 212 207 210 218 230 253 266 262 256 245 230 214 202 166 111 108 121 121 116 91 55 40 29 21 12 2 357 0 5 357 6 20 22 36
164 173 197 202 220 191 169 192 191 188 190 179 194 235 241 170 179 176 182 188 183 188 193 197 204 206 204 199 200 195 184 175 168 167 163 166 172 173 178 180 183 185 184 185 183 184 185 187 189 183 176 180 194 198 194 196 197 193 197 202 207 209 206 201 197 201 212 230 247 251 241 230 219 206 192 176 141 118 119 126 118 105 82 52 35 27 15 359 353 353 349 348 354 5 15 25 40
186 206 203 196 208 197 166 189 198 186 157 192 211 222 94 174 185 176 185 195 196 199 195 198 206 209 207 202 201 196 177 161 162 168 167 166 169 172 177 179 184 186 186 186 183 185 183 180 183 178 176 184 196 198 194 196 197 197 201 201 196 190 191 192 194 200 209 225 233 219 203 194 182 166 151 134 121 120 121 117 107 93 71 46 23 8 353 340 337 340 335 332 340 350 4 32 53
191 210 214 198 197 193 174 157 195 185 173 201 219 225 211 123 175 178 187 196 199 207 204 203 207 209 210 207 205 201 184 174 175 172 170 168 169 175 180 183 189 190 189 188 185 183 174 169 176 178 178 186 195 194 190 191 193 194 192 185 181 181 185 188 192 196 200 207 205 187 171 163 150 135 125 119 114 117 118 109 96 76 38 8 354 347 339 333 328 329 326 323 329 346 10 33 85
187 195 206 200 192 194 185 150 154 179 192 206 210 220 221 150 169 185 193 196 200 209 209 207 208 211 212 211 211 207 194 191 185 169 168 168 168 173 178 182 189 194 192 188 184 179 168 166 177 181 182 186 190 190 186 186 186 182 174 168 171 176 178 181 182 178 174 176 178 170 154 143 135 127 120 117 113 111 110 100 73 26 357 344 342 343 341 334 328 328 327 327 342 2 13 33 122
189 183 189 187 179 188 185 147 161 176 191 208 208 213 207 182 180 190 197 199 206 214 213 213 212 212 214 214 214 207 201 198 176 162 163 164 166 170 174 175 181 189 191 185 180 176 170 171 177 182 188 188 186 185 182 178 173 166 163 162 163 167 170 170 165 160 155 153 154 150 140 133 132 128 121 117 112 103 94 64 20 351 340 336 335 337 332 326 326 325 322 331 0 12 25 88 126
166 139 142 171 168 171 178 171 182 182 189 209 212 212 198 189 189 191 195 199 209 215 214 215 212 211 213 214 216 209 204 189 157 158 162 162 164 168 172 173 175 180 183 181 175 173 175 179 180 184 192 191 187 183 179 175 171 166 163 161 160 161 162 158 153 152 149 144 145 142 135 136 139 134 123 116 102 71 38 10 353 340 333 330 329 326 323 323 325 320 314 346 35 57 63 100 131
139 162 161 174 185 170 176 186 182 187 204 208 201 210 202 193 192 190 192 198 209 213 212 214 210 210 212 213 215 207 194 165 151 159 162 160 160 163 167 169 173 174 176 179 174 169 175 181 183 186 189 189 187 184 181 178 177 174 168 163 160 156 154 153 149 149 148 145 146 144 142 144 142 132 118 101 55 14 2 355 344 335 331 329 327 326 326 324 321 309 275 85 84 85 70 89 140
83 182 177 183 183 152 172 193 172 179 214 203 179 206 206 193 200 197 196 202 210 212 213 216 211 209 212 215 214 202 188 167 160 164 160 158 159 161 165 168 175 176 175 178 176 171 173 178 181 183 186 185 184 184 181 177 175 175 171 167 165 157 154 156 151 147 147 147 144 142 141 138 130 116 96 55 15 4 360 354 345 339 333 331 329 327 326 320 317 293 166 126 99 88 70 68 120
311 176 183 186 168 163 187 190 123 140 224 176 173 200 211 194 216 212 207 210 217 217 218 222 217 215 217 216 212 204 198 179 168 169 161 159 160 164 168 170 176 178 173 172 171 171 171 174 177 180 185 187 183 180 179 178 177 176 173 170 168 160 154 153 148 145 145 144 140 136 134 127 113 94 75 41 15 7 1 355 349 342 336 334 333 328 324 317 320 142 154 144 115 93 75 65 72
226 210 209 176 161 180 176 142 132 117 123 143 153 175 239 206 209 212 209 214 221 221 220 224 221 219 216 206 203 206 202 183 172 173 167 162 164 169 169 172 180 179 171 169 170 173 174 173 177 181 185 185 180 178 182 182 177 170 162 157 154 149 146 146 145 143 140 139 137 131 124 115 102 85 68 48 23 9 0 353 350 345 342 345 349 352 19 80 114 131 141 138 120 104 92 78 71
210 223 228 175 158 171 127 133 151 155 198 188 169 203 230 195 209 212 197 207 219 219 219 222 218 213 206 200 203 205 200 188 180 177 171 165 166 170 170 175 184 179 170 172 175 178 178 175 178 182 182 180 179 182 186 184 176 170 162 156 152 146 143 146 148 146 142 140 138 129 119 107 92 77 60 37 18 6 360 359 3 9 19 35 66 83 93 103 112 124 130 125 114 106 101 91 80
206 201 199 168 130 135 142 157 170 182 202 181 190 226 226 181 217 214 197 205 215 214 218 220 213 205 201 202 203 201 197 189 186 183 173 167 168 170 171 177 183 175 169 175 175 175 176 175 179 182 180 178 180 184 186 182 176 174 172 166 162 157 153 153 153 151 146 142 138 130 120 106 87 66 43 19 8 8 19 42 58 71 90 97 101 100 98 102 109 116 121 117 110 107 105 100 92
196 157 161 168 149 117 148 169 181 189 132 133 191 233 244 239 215 200 196 206 217 217 219 218 213 208 207 208 203 196 195 189 188 187 177 171 172 172 171 174 179 175 171 175 172 172 173 174 177 180 181 180 183 187 188 185 182 181 180 174 166 162 162 157 152 150 146 142 137 130 120 105 82 47 21 6 8 35 68 83 94 103 109 108 103 100 98 102 106 108 109 107 103 100 100 98 94
172 127 139 167 177 143 145 169 174 162 157 186 199 196 224 236 173 173 191 203 219 220 215 213 212 213 213 213 206 195 188 186 189 190 182 175 174 176 173 170 175 180 181 179 173 171 171 173 176 178 181 181 184 188 188 188 189 186 182 177 170 165 162 155 152 150 147 146 139 130 122 104 74 25 3 6 39 91 105 105 111 113 112 106 100 100 103 105 106 105 103 100 97 94 93 94 92
142 143 132 121 158 142 128 178 148 148 202 217 200 186 212 228 136 163 192 204 218 216 210 212 213 215 217 214 204 189 177 182 188 187 183 178 176 177 173 167 172 180 185 182 174 172 172 173 175 176 180 183 184 186 186 187 189 185 180 179 174 166 160 154 153 152 149 148 143 137 131 108 73 16 10 67 115 125 124 120 122 119 113 108 106 107 108 107 105 102 99 95 93 92 92 92 91
135 169 184 121 130 120 94 174 122 163 223 228 197 185 213 238 181 182 196 203 208 200 199 209 214 217 218 211 194 179 178 186 188 186 181 178 176 176 171 167 171 178 183 181 175 175 176 175 176 177 182 186 185 185 186 185 186 185 185 182 175 169 165 160 157 154 152 155 155 149 139 116 89 86 102 127 138 136 131 128 126 121 116 113 112 112 111 108 105 100 95 93 93 93 93 91 89
153 179 198 186 158 164 159 165 162 204 223 232 174 165 203 238 212 193 199 192 193 195 197 204 210 215 214 209 194 180 182 185 184 186 182 176 174 174 173 169 171 179 184 180 176 178 178 178 179 180 183 188 187 187 188 183 182 187 187 184 179 175 172 169 167 165 164 168 165 156 143 129 123 124 131 145 145 141 138 132 128 123 118 115 115 115 114 109 104 99 96 96 96 95 93 90 87
178 178 186 192 184 187 199 186 188 212 220 1 144 156 192 244 229 191 205 200 195 198 202 205 208 211 207 205 198 183 177 183 182 182 182 177 174 175 174 170 171 181 185 181 178 179 180 180 182 183 185 188 187 185 186 183 184 189 187 184 182 179 177 177 177 175 174 173 167 156 145 134 128 133 146 151 149 148 144 137 133 126 121 119 119 118 114 109 104 100 100 100 98 95 92 88 86
186 180 181 191 184 178 195 192 194 216 206 38 169 169 204 251 228 191 202 206 205 202 206 210 209 209 203 197 193 183 183 191 186 180 181 179 175 176 175 171 173 180 181 179 178 177 177 179 183 186 186 187 185 183 184 184 186 188 188 186 185 182 180 180 180 179 175 170 162 154 144 133 127 140 154 153 152 152 148 143 137 130 126 125 124 120 115 109 105 102 102 101 97 94 90 88 86
186 180 182 196 191 181 192 184 179 191 148 122 169 182 216 227 194 199 199 203 210 206 210 216 212 209 197 186 189 191 196 199 191 181 182 180 175 175 174 170 174 180 176 174 177 177 177 179 182 185 184 183 182 182 183 184 185 187 188 188 187 185 184 182 181 179 172 164 159 153 143 130 126 147 157 155 153 154 151 147 140 134 132 130 127 123 118 111 106 105 104 101 97 94 91 88 86
180 152 191 207 198 151 122 124 118 113 117 145 179 216 268 261 345 4 171 196 202 202 211 214 210 199 182 182 192 197 201 199 191 184 183 181 174 174 175 169 171 179 175 171 175 177 178 179 180 184 185 181 180 181 182 183 185 186 187 189 189 188 187 185 179 172 166 163 160 153 142 130 133 153 157 155 154 156 154 149 142 137 135 133 130 124 118 113 108 107 106 102 98 95 92 89 86
158 175 196 193 143 115 125 118 49 91 175 168 191 243 274 282 284 64 123 183 183 194 206 204 202 193 184 192 195 195 199 198 193 188 184 181 174 173 177 171 168 175 175 173 176 178 179 179 179 181 183 180 179 180 180 182 184 184 186 189 190 190 190 185 176 168 164 163 159 151 139 135 147 157 157 156 156 157 156 152 145 140 137 134 130 125 119 114 109 108 109 105 101 97 93 90 88
164 188 178 120 81 78 127 157 124 173 202 175 197 240 236 200 225 87 138 184 182 195 202 197 196 191 191 200 194 190 197 198 193 187 182 180 175 175 179 174 169 174 175 174 175 178 179 178 179 180 179 178 179 180 181 183 184 184 186 189 191 193 190 182 174 170 166 162 159 152 144 145 155 159 159 157 157 158 157 154 147 141 139 136 132 128 122 115 111 111 112 109 104 100 95 92 89
205 182 152 127 178 198 170 163 173 182 202 199 193 239 250 215 209 184 184 190 190 199 200 194 193 195 200 200 190 189 193 194 191 183 178 180 178 178 180 174 168 170 173 172 173 177 176 176 182 184 181 180 180 180 181 183 185 185 186 190 193 191 184 178 174 170 167 165 162 157 150 151 158 161 162 160 159 160 159 155 149 143 141 139 136 131 124 116 112 115 117 114 109 103 99 95 91
238 165 165 175 207 199 183 153 176 182 189 213 203 219 241 212 200 206 204 200 196 195 194 195 197 199 201 194 185 189 192 191 188 181 177 179 179 179 178 172 165 165 168 169 172 175 172 173 181 182 180 180 180 180 181 181 184 187 187 188 187 183 178 176 173 169 167 168 166 160 153 155 163 165 164 163 162 163 162 158 153 148 145 143 140 134 126 117 114 119 122 118 114 109 104 99 93
174 185 187 189 181 179 191 174 4 203 181 189 209 226 237 195 188 208 214 211 201 191 189 197 204 201 196 191 184 186 191 192 187 180 177 177 175 175 173 167 161 163 165 166 170 170 168 171 177 177 176 177 177 178 181 182 184 188 188 184 181 179 176 174 171 170 171 172 167 160 156 162 167 167 167 168 167 166 166 162 156 152 150 147 144 138 128 119 118 124 127 122 118 115 108 104 97
179 192 190 191 184 164 191 197 185 202 210 183 205 239 253 181 189 210 213 214 202 194 192 195 201 199 192 186 182 183 190 190 184 179 177 175 172 170 166 160 158 160 163 167 170 168 167 173 177 175 173 175 177 178 180 182 184 186 185 182 179 177 175 174 173 174 175 174 167 160 162 169 169 169 171 172 171 170 169 166 161 157 154 151 148 142 131 122 122 128 131 126 122 119 113 108 102